GFSSGP_925_temp_057.txt.gz
Temp
24 22 23 23 25 25 31 33 34 33 30 29 30 29 26 27 28 24 26 24 24 23 23 23 23 23 23 23 23 23 23 23 23 23 23 23 22 22 22 22 22 22 21 21 21 21 21 21 21
24 22 24 24 25 30 31 34 33 31 31 30 30 29 29 28 30 28 26 25 25 23 23 23 23 23 23 23 23 23 23 23 23 23 23 23 22 22 22 22 22 22 22 21 21 21 21 21 21
24 26 25 25 30 30 32 34 34 34 33 32 30 32 31 30 31 29 27 26 25 24 24 23 23 23 23 23 23 23 23 23 23 23 22 23 22 22 21 22 22 22 22 22 21 21 21 21 21
26 25 27 28 33 34 34 35 35 34 34 33 32 30 31 31 30 29 28 27 25 24 24 23 23 23 23 23 23 23 23 22 23 23 22 22 22 21 21 22 22 22 22 22 21 21 21 21 21
23 27 28 29 33 35 36 36 35 34 33 32 31 30 30 31 29 29 27 26 26 24 23 23 23 23 23 23 23 23 23 23 23 22 22 22 22 21 21 21 22 22 22 22 22 21 21 21 21
22 21 28 28 32 37 37 36 36 35 33 32 30 29 29 31 31 27 27 26 27 25 23 23 23 23 22 23 23 22 22 22 22 22 22 22 22 22 21 21 21 22 22 22 22 21 21 21 21
24 24 28 29 32 36 37 36 35 35 34 33 32 28 28 30 31 29 27 27 25 24 24 24 23 22 22 22 22 22 22 22 22 22 22 22 22 22 22 22 22 22 22 22 22 22 21 21 21
29 29 31 32 31 33 36 36 35 35 35 34 33 29 28 30 31 30 28 26 25 25 25 25 25 24 23 22 22 22 21 22 22 22 22 22 21 22 22 21 22 22 22 22 21 22 21 21 21
32 29 30 33 32 36 35 35 37 36 35 34 34 32 31 31 31 29 28 26 26 25 25 25 25 25 23 23 23 23 23 22 22 22 22 22 22 22 23 23 22 22 23 22 21 21 22 22 22
31 28 32 35 34 33 36 32 31 35 34 32 32 32 31 31 31 29 28 27 26 26 25 25 25 25 24 23 23 24 23 24 23 23 23 23 23 22 23 22 23 22 22 22 22 22 22 21 22
33 30 34 35 37 33 32 30 29 31 32 32 31 31 31 31 30 30 30 30 26 26 25 25 25 25 24 24 24 24 23 24 24 23 23 23 23 23 23 23 23 22 22 22 22 21 21 22 22
35 36 35 36 37 37 32 30 30 33 34 34 32 32 31 30 29 30 29 30 29 27 26 26 26 25 25 25 25 24 24 23 23 23 23 23 23 23 23 23 22 22 22 22 22 22 22 22 22
34 36 38 37 38 35 32 31 31 31 32 34 33 32 31 30 30 31 31 30 30 28 27 26 26 25 25 26 25 25 24 24 23 24 23 24 23 24 23 22 22 23 23 22 21 21 21 21 22
36 38 39 39 39 34 31 31 34 34 34 34 33 31 31 30 30 31 31 31 30 29 28 27 26 26 26 24 24 25 24 24 23 23 23 23 22 23 24 23 23 23 22 21 22 22 22 21 21
39 38 38 40 38 33 33 31 33 33 32 32 33 33 32 30 32 31 31 31 30 30 29 28 27 26 26 25 24 24 24 23 23 23 22 22 22 23 23 23 22 22 22 22 23 22 20 21 22
37 35 35 37 38 35 34 30 31 31 30 30 30 34 32 30 31 32 32 31 30 29 28 27 27 26 25 24 24 23 23 23 22 21 20 22 22 23 23 22 22 22 22 22 23 22 23 23 21
32 31 32 33 36 37 36 32 32 30 30 30 29 31 32 30 30 32 32 31 30 30 28 27 26 26 25 24 23 23 22 21 21 21 21 22 22 23 23 22 21 21 21 21 21 22 21 21 23
32 31 32 33 35 35 35 33 33 32 32 32 31 30 32 31 30 32 32 31 30 29 28 27 26 25 24 24 23 22 21 21 20 21 22 22 21 22 22 22 21 22 22 20 20 21 21 21 23
34 33 34 34 36 34 34 33 34 32 31 30 25 28 31 31 31 32 32 31 30 29 28 27 26 25 24 24 23 22 22 22 22 21 22 22 21 22 22 21 21 22 22 22 22 23 22 23 23
35 34 33 34 36 35 34 34 35 32 31 30 25 28 30 29 31 31 32 30 30 28 27 26 26 24 24 24 23 23 23 23 22 23 22 22 22 22 22 21 22 22 22 23 23 23 23 24 24
36 33 34 34 36 36 33 34 33 32 32 32 30 30 27 27 31 30 30 30 29 28 27 26 26 25 24 23 23 23 22 22 22 23 22 22 22 22 22 22 22 22 22 22 22 22 23 23 23
34 36 37 37 33 31 35 31 31 31 32 32 31 28 28 27 31 30 30 30 29 28 27 27 25 25 24 23 23 23 23 23 23 23 23 23 23 23 22 22 22 22 21 21 21 22 22 22 22
35 37 36 37 34 36 34 31 32 29 30 32 32 33 31 33 31 30 30 30 30 29 27 26 25 24 23 23 23 23 23 24 24 23 23 23 23 22 22 22 21 21 21 20 20 21 21 21 21
37 36 35 35 32 29 32 31 30 29 30 32 30 32 34 33 32 31 30 31 31 28 26 25 24 24 23 23 23 23 24 23 23 23 23 23 23 22 22 21 21 20 20 19 19 20 20 20 21
36 34 28 29 28 28 30 31 30 33 33 34 33 34 34 33 32 30 29 29 29 27 25 24 24 24 23 23 23 23 23 24 24 23 23 23 22 21 21 21 21 20 19 19 19 20 20 20 20
32 31 27 30 29 29 33 32 33 36 36 36 36 34 34 30 23 22 25 29 28 27 25 25 24 24 23 23 23 23 23 23 22 22 21 22 21 21 20 20 21 20 18 19 19 19 20 20 20
33 32 32 31 32 29 29 31 33 30 27 33 36 35 33 27 25 24 29 29 28 28 25 25 24 24 23 23 23 23 21 21 20 20 20 21 21 21 21 21 20 20 20 19 20 20 20 20 20
34 34 32 28 30 30 30 30 29 28 27 31 28 32 31 31 31 31 30 29 28 29 27 26 25 24 23 23 23 22 22 20 20 20 20 21 20 21 21 21 21 20 20 19 20 20 20 19 19
33 32 33 29 29 28 27 27 27 26 25 26 25 27 32 31 31 30 30 29 29 27 25 24 24 24 23 23 22 22 22 22 19 20 20 20 20 21 21 21 20 20 19 19 19 19 20 19 19
34 34 31 27 29 27 26 27 29 25 24 28 27 23 33 32 31 30 29 29 28 24 25 24 23 22 22 21 22 21 21 21 21 21 21 20 21 20 21 20 20 20 19 19 19 19 18 18 18

GFSSGP_925_temp_060.txt.gz
Temp
22 21 21 22 24 24 28 29 31 30 28 28 30 28 27 26 27 24 24 23 24 23 23 23 23 23 23 23 23 23 23 23 23 22 22 22 23 22 22 22 21 21 21 21 21 21 21 21 20
22 21 22 23 25 27 29 30 29 29 29 28 28 28 28 25 26 23 23 22 23 23 23 23 23 23 23 23 23 23 23 22 23 22 22 22 22 22 22 22 21 21 21 21 21 21 21 20 20
23 23 24 23 25 29 29 30 30 30 31 31 30 31 29 25 26 25 24 24 23 23 23 23 23 23 23 23 23 23 23 22 22 23 22 21 21 21 22 22 22 22 21 21 21 21 21 21 20
24 24 24 27 29 32 32 31 31 31 31 31 30 28 30 28 27 26 24 24 23 23 23 23 23 23 23 23 23 23 23 23 22 22 22 22 22 22 22 22 22 22 22 21 21 21 21 21 21
25 25 26 28 30 33 33 33 32 30 30 30 30 28 27 28 27 25 24 24 25 23 23 23 23 23 23 23 23 23 23 22 22 22 21 21 21 21 21 21 21 21 21 22 21 21 22 22 22
23 24 27 28 30 34 33 33 32 31 30 30 29 28 26 27 26 25 24 25 25 24 23 23 23 23 23 23 23 23 23 23 22 21 21 21 21 21 22 22 21 21 21 21 21 21 21 21 22
27 26 28 29 32 33 33 33 31 30 30 30 30 27 27 27 26 24 25 25 24 23 23 23 23 23 23 23 23 22 22 22 22 22 21 21 21 21 21 21 22 22 22 21 21 21 21 21 22
26 27 30 31 31 32 34 33 32 31 31 31 30 27 27 27 25 25 25 25 24 24 24 24 24 24 23 23 23 23 23 23 22 22 22 22 21 21 21 21 21 22 22 22 22 22 21 21 22
30 28 29 32 33 33 33 32 33 32 31 31 31 30 29 27 26 24 23 23 23 23 23 23 24 24 24 24 23 23 23 23 23 23 22 23 22 22 22 22 22 21 21 22 22 22 21 22 22
29 27 31 33 33 32 33 34 32 32 31 30 29 30 29 27 27 25 24 23 22 22 23 24 24 24 24 23 24 23 23 22 23 23 22 23 23 23 22 22 22 22 21 21 21 22 21 21 22
30 30 31 33 33 33 30 31 31 30 30 29 28 29 29 28 27 26 24 24 24 24 24 24 24 24 24 23 23 23 23 23 23 23 23 23 22 22 23 22 22 22 21 21 21 21 21 21 21
33 34 33 33 32 32 31 31 32 31 30 31 30 30 29 28 27 27 25 25 24 24 25 25 24 24 24 24 24 24 23 23 23 23 23 23 22 22 23 23 22 22 22 21 21 21 21 22 22
34 35 36 34 33 32 31 31 32 32 32 31 31 30 29 28 28 28 28 27 26 25 25 25 25 25 25 24 24 23 23 23 23 23 23 23 23 22 23 23 22 22 22 22 22 22 22 23 23
35 35 36 36 32 33 31 32 33 32 32 31 31 29 29 28 29 29 29 27 26 26 26 26 25 25 25 25 25 23 23 23 23 22 23 23 22 22 22 22 22 22 22 22 23 23 23 24 24
35 34 35 34 32 32 32 31 31 31 31 31 31 30 30 29 29 29 29 28 27 27 27 26 25 25 25 25 25 23 24 23 23 21 22 22 22 22 22 22 22 21 22 22 22 23 22 22 24
33 30 30 33 33 32 33 31 32 30 31 30 31 31 30 28 29 31 30 29 28 28 27 26 26 25 25 25 23 23 22 22 21 21 21 21 21 22 22 22 22 21 22 21 22 22 21 21 23
29 30 32 33 34 34 32 33 32 28 30 29 28 29 30 29 28 30 31 30 29 28 28 26 26 26 25 24 24 23 22 20 21 20 21 21 22 22 22 22 22 22 21 21 21 21 21 21 23
30 31 32 33 36 35 32 32 32 30 30 27 28 27 29 28 29 30 30 30 29 29 28 27 26 25 24 24 23 23 22 20 21 21 21 21 21 21 22 22 22 22 21 21 21 21 22 23 23
32 33 35 34 35 34 33 32 32 31 31 27 27 29 28 27 30 30 30 30 29 28 27 26 25 25 24 23 22 22 22 22 22 22 22 21 21 21 22 22 22 21 21 21 21 22 21 21 23
32 33 33 34 35 34 33 33 33 31 30 29 29 27 27 26 28 29 29 29 28 27 27 26 26 25 24 24 23 23 23 23 23 23 22 22 22 22 22 22 22 22 22 21 22 21 21 22 23
32 31 32 34 35 34 33 30 30 30 30 30 30 29 28 29 28 28 28 28 27 26 27 27 26 25 24 23 23 22 22 23 22 22 22 22 23 22 22 22 21 21 21 22 21 22 22 22 22
30 33 34 34 33 30 32 28 29 28 29 30 30 29 29 27 28 28 28 27 26 26 27 27 26 25 24 23 23 23 23 23 23 23 22 22 22 22 22 21 21 21 21 21 21 21 21 21 22
32 32 33 33 31 29 31 28 28 29 29 29 29 29 29 27 29 29 28 28 27 26 26 27 25 24 23 23 23 23 23 23 23 23 23 22 22 21 22 21 21 20 20 20 20 20 20 20 20
36 36 29 28 26 28 29 29 28 27 30 30 28 30 31 28 29 29 29 28 27 25 26 27 24 23 23 23 23 23 23 23 23 23 23 22 21 21 21 21 20 20 19 19 20 20 20 20 20
32 27 26 28 26 27 28 30 28 29 31 31 30 30 31 30 28 28 27 27 25 24 25 24 23 23 22 22 23 23 22 22 22 22 23 23 21 21 20 20 20 19 19 19 20 20 20 20 20
33 27 25 29 27 28 29 30 31 28 28 32 31 31 31 28 27 28 28 26 24 23 24 22 23 22 22 23 22 22 21 22 22 23 22 21 21 20 20 20 20 19 19 19 20 20 20 20 19
31 31 28 27 27 26 27 29 29 29 29 28 30 27 27 27 28 28 25 26 24 24 23 24 24 23 23 22 22 22 22 21 20 22 21 21 20 20 21 20 20 20 19 19 20 19 19 20 19
32 31 31 24 30 28 27 29 27 30 29 27 25 24 22 20 21 24 24 26 24 26 24 24 24 23 23 22 22 22 22 20 19 20 21 20 20 20 20 20 20 20 19 20 20 19 19 20 19
31 31 28 26 24 26 25 26 24 24 25 26 23 22 20 18 19 22 26 25 24 23 24 23 23 23 22 22 23 22 22 21 20 20 20 20 20 20 20 20 20 19 19 19 19 19 19 19 19
32 30 26 25 28 24 24 26 22 22 23 24 24 24 22 20 19 20 27 23 23 22 23 23 23 22 22 22 22 21 21 21 21 20 20 20 20 20 20 20 19 19 18 18 18 18 18 18 19

GFSSGP_925_temp_063.txt.gz
Temp
22 21 21 22 24 24 26 28 29 28 28 27 29 28 26 25 26 25 22 23 24 23 23 23 23 22 22 23 23 23 22 22 22 22 21 21 21 21 21 21 21 21 21 21 21 20 20 20 20
21 21 22 23 24 25 27 28 27 28 27 27 28 27 26 25 25 22 22 22 23 23 23 23 23 23 23 23 23 23 22 22 22 22 22 22 22 21 21 21 21 21 21 21 21 21 21 20 20
21 22 23 24 24 26 26 28 28 29 29 29 29 29 27 24 24 23 23 23 23 23 23 23 23 23 23 23 23 22 22 22 22 22 22 22 21 21 21 21 21 21 21 21 21 21 20 20 20
22 22 23 25 28 30 29 29 29 29 30 30 29 27 27 26 24 24 22 23 23 23 23 23 23 23 23 23 22 22 22 22 22 22 22 22 22 21 21 21 21 21 21 21 21 21 20 21 20
23 23 25 27 29 31 30 30 30 29 28 29 29 26 26 26 25 24 23 24 24 23 23 23 23 23 23 23 22 22 22 22 22 22 22 22 21 21 21 21 21 21 21 21 21 20 21 21 21
23 23 26 27 28 31 31 30 30 29 29 28 27 26 25 24 24 23 23 23 23 23 23 23 23 23 23 23 22 22 21 21 21 21 21 22 22 22 22 22 21 21 21 21 21 21 21 22 22
26 26 28 29 30 31 31 30 29 28 29 29 29 25 24 24 24 24 23 23 23 23 23 22 23 23 23 23 22 22 22 21 21 21 21 21 22 22 22 22 22 21 21 21 22 22 21 22 22
26 27 30 31 31 30 31 31 30 29 29 30 29 25 23 25 24 23 23 22 23 23 23 23 23 23 23 23 22 23 22 22 21 21 21 21 21 21 21 22 21 21 21 21 21 22 22 22 22
28 27 29 31 32 30 31 30 31 31 29 30 30 28 27 25 23 23 22 21 22 22 23 22 23 22 23 23 23 23 22 22 22 21 21 21 21 21 21 22 22 21 21 21 21 21 22 22 22
28 26 31 32 31 31 33 32 31 29 29 28 28 27 26 24 23 23 22 21 21 22 23 23 23 23 23 23 23 23 22 22 22 21 21 21 21 21 22 22 22 22 21 21 21 21 21 22 22
28 29 31 33 32 32 32 32 31 29 28 28 27 25 26 25 24 23 23 22 24 24 23 23 23 23 23 23 23 23 23 22 22 22 21 21 22 22 21 22 22 22 21 21 21 21 21 21 22
31 31 32 32 32 32 32 30 30 30 30 29 28 27 26 25 25 24 23 23 23 23 24 24 24 23 23 23 23 23 23 23 23 23 22 21 22 22 22 22 22 22 21 22 22 22 22 22 22
31 33 32 33 31 32 31 31 31 30 30 29 29 28 26 26 25 25 24 24 24 24 25 24 24 24 24 23 23 23 23 23 23 23 23 23 23 22 22 22 22 22 22 22 22 22 22 22 22
33 33 33 32 31 32 31 30 31 31 30 29 29 28 28 27 26 25 25 24 24 25 25 25 25 24 24 23 23 23 23 23 23 23 23 22 22 22 22 22 22 22 22 21 21 21 21 22 22
33 32 30 30 30 30 31 31 30 29 29 29 28 28 28 27 27 26 26 25 26 26 26 26 25 24 24 24 23 23 22 22 21 21 21 21 22 21 22 22 22 22 22 22 21 21 21 21 22
31 29 29 32 31 30 31 29 30 28 29 28 29 29 28 27 28 28 28 28 27 27 27 26 25 25 25 24 23 22 22 21 21 20 20 21 21 21 22 22 22 22 22 22 21 21 21 21 21
28 29 30 31 31 31 31 30 30 27 29 28 29 29 29 28 27 28 29 28 29 28 27 27 26 25 24 23 23 22 22 21 21 20 20 20 20 21 22 22 22 22 21 21 20 20 20 20 21
30 30 31 30 32 31 30 29 28 28 29 28 28 28 28 28 28 28 29 28 29 28 27 27 26 25 23 22 22 23 22 21 20 20 20 20 21 21 21 22 22 22 21 21 21 20 20 20 21
31 30 30 32 33 31 30 31 30 29 29 28 26 28 27 28 29 28 28 28 28 28 27 26 25 24 23 22 23 22 22 21 21 21 21 21 21 21 21 21 21 21 21 21 21 21 21 21 21
30 30 30 31 33 31 31 32 30 28 30 30 28 27 27 26 26 27 27 27 27 28 27 26 25 25 23 23 23 23 23 22 22 22 21 21 21 21 21 21 21 21 21 21 21 21 21 21 21
30 30 29 31 32 33 33 30 30 29 29 29 29 28 27 26 26 26 26 26 25 26 26 26 25 25 23 23 23 23 22 22 22 22 22 22 21 21 21 22 21 21 21 21 21 21 21 21 21
29 30 32 32 32 29 32 28 28 29 28 28 28 26 26 26 26 26 26 25 25 26 26 25 26 25 23 23 23 23 23 22 23 23 22 22 22 22 22 22 21 21 21 20 20 21 21 21 21
31 30 31 31 30 29 29 27 27 27 29 27 28 27 26 26 26 26 26 26 25 25 25 25 26 24 22 22 23 23 22 23 22 22 21 21 21 21 21 21 20 20 20 20 20 20 20 20 20
33 31 26 24 24 26 28 28 27 27 28 29 28 28 28 26 26 27 27 27 25 25 25 22 24 23 22 22 22 23 23 22 22 21 21 21 21 20 21 20 20 19 19 19 19 19 19 20 20
29 26 25 27 26 26 26 26 27 29 28 28 29 28 27 27 26 25 24 24 24 24 24 26 25 22 23 21 22 22 22 22 22 23 22 22 22 20 20 20 19 19 19 19 19 20 19 19 19
31 27 25 28 26 27 27 29 30 29 27 26 29 28 25 24 22 20 20 22 24 24 25 26 26 22 22 21 21 22 22 22 22 22 22 22 20 20 20 19 19 19 19 19 19 20 20 19 19
31 29 27 23 23 26 25 27 29 28 25 25 24 22 22 22 22 21 20 20 23 24 26 25 24 22 22 22 21 22 22 21 21 21 21 20 20 20 19 19 20 19 19 20 20 19 19 19 19
31 28 28 23 27 28 26 27 27 27 25 24 22 22 21 22 24 22 21 21 24 23 25 25 24 22 22 22 22 22 21 20 20 21 21 20 20 20 20 20 19 19 19 19 19 19 19 19 18
29 28 24 23 23 25 25 25 23 24 25 23 22 22 22 22 22 20 20 20 22 23 24 23 23 22 22 22 22 21 21 20 20 20 20 20 20 20 20 20 19 19 18 18 18 18 18 18 18
30 29 25 24 27 22 23 26 23 21 21 23 22 22 21 21 21 19 19 21 20 23 22 23 22 22 22 21 21 21 20 20 20 20 20 20 20 20 20 20 19 18 18 18 18 18 18 18 18

GFSSGP_925_temp_069.txt.gz
Temp
22 21 22 24 28 30 30 30 30 30 29 29 30 30 28 27 28 27 23 22 23 23 23 22 22 21 21 21 21 21 22 22 22 22 21 21 21 21 21 21 21 21 20 20 21 20 20 21 21
22 22 23 25 30 31 30 30 29 29 29 30 29 28 28 26 26 24 24 22 23 23 23 23 22 21 21 21 21 21 21 21 21 21 21 21 21 22 21 21 21 21 21 21 20 21 20 20 21
22 23 25 27 30 31 31 30 29 29 30 30 29 29 28 27 25 25 23 22 22 23 23 22 22 21 21 21 21 21 21 21 21 21 21 21 21 21 21 22 21 21 21 21 21 20 20 20 21
23 24 25 30 31 31 31 30 30 30 30 30 30 28 28 26 25 24 23 23 23 23 23 22 22 21 21 21 21 21 21 22 21 21 21 21 21 21 21 21 22 21 21 21 20 21 20 20 20
24 25 30 31 32 31 31 31 30 30 30 29 29 28 27 26 25 23 23 23 23 22 22 22 22 22 21 21 22 22 22 22 22 21 21 21 21 21 21 21 22 21 21 21 21 21 20 20 21
25 26 32 32 31 31 31 31 31 30 29 29 29 28 27 24 23 23 23 23 23 23 22 22 22 22 22 22 22 22 22 22 22 21 21 21 21 21 21 21 21 22 21 21 20 21 20 20 21
28 30 31 31 32 31 31 31 31 30 30 29 29 28 26 25 23 23 23 22 22 22 22 22 22 21 21 22 22 22 22 21 21 21 21 21 21 21 21 21 21 21 21 21 21 20 20 20 20
28 31 32 32 32 33 32 31 31 31 30 30 30 29 28 27 23 23 22 22 22 22 22 22 22 22 22 22 21 21 21 21 21 21 21 21 21 21 21 21 21 21 21 21 21 21 20 20 20
29 32 33 33 33 33 32 31 31 31 30 30 30 30 29 25 24 24 23 22 22 22 22 22 22 21 21 21 22 21 21 21 21 21 21 21 22 22 21 21 21 21 20 21 21 21 21 21 21
31 33 34 34 35 34 32 32 31 31 30 30 29 27 26 25 24 25 25 25 23 23 22 22 22 21 21 21 21 21 21 21 21 21 21 21 22 21 21 21 21 20 20 20 21 21 21 21 22
31 34 35 35 35 35 34 32 32 31 30 31 30 28 27 26 26 26 26 25 24 24 23 22 21 21 21 21 21 21 22 22 21 21 21 20 20 20 20 21 21 21 21 22 21 22 22 21 21
33 34 34 36 34 34 33 33 32 32 34 33 31 29 27 27 27 26 26 25 25 24 24 23 22 21 21 21 21 21 22 21 22 21 21 21 20 21 20 21 20 20 21 21 21 21 21 21 21
33 35 36 35 34 34 33 33 33 31 32 31 30 28 28 28 27 26 26 26 25 24 24 23 22 22 21 21 21 22 22 21 21 21 22 21 21 20 20 22 22 21 21 21 20 20 20 20 21
35 35 35 34 33 34 33 33 32 34 31 30 29 28 29 28 28 27 26 26 25 25 24 23 23 23 23 23 23 23 22 21 21 21 22 22 21 21 21 21 22 22 21 22 20 21 20 20 20
34 34 34 34 32 33 34 33 32 33 31 30 30 29 29 28 27 27 27 26 26 25 24 23 23 24 24 24 23 23 23 22 21 20 20 21 20 21 21 21 22 22 22 21 20 20 21 20 20
34 33 35 34 33 32 34 36 34 33 32 31 30 30 28 28 28 27 27 26 25 25 24 24 23 23 24 24 23 23 22 20 20 20 19 20 20 20 21 21 22 22 20 20 20 20 20 20 20
33 35 34 35 33 33 33 35 32 32 32 31 30 30 29 29 28 27 27 27 26 25 24 24 25 23 24 24 23 23 22 21 20 19 19 19 19 19 20 21 22 22 21 20 20 20 20 21 20
33 33 34 33 34 32 33 34 35 31 31 32 31 30 30 30 30 28 27 27 27 25 24 24 25 23 23 23 23 22 21 21 20 19 19 19 19 19 20 21 21 21 20 20 20 20 20 20 20
32 32 32 34 34 34 35 34 35 33 31 31 31 30 30 31 32 30 28 27 27 25 24 23 24 23 23 23 21 20 21 20 20 20 20 19 19 19 20 21 20 20 21 21 20 19 19 20 19
32 32 33 34 33 33 35 34 35 35 33 33 32 31 31 31 31 30 28 27 26 26 24 21 21 21 20 22 22 22 21 20 21 20 20 19 19 20 20 20 20 20 20 19 19 19 20 20 19
33 33 33 33 33 33 33 34 35 36 33 33 33 32 31 31 31 30 29 27 27 24 20 21 23 22 23 22 20 20 20 21 20 20 20 21 20 20 20 19 20 21 20 21 20 19 19 20 20
33 34 33 34 33 34 32 34 33 34 34 34 33 32 31 31 30 31 29 27 25 19 21 24 26 26 25 22 23 20 20 21 22 21 21 20 20 20 20 20 20 20 20 20 20 19 20 20 21
34 32 32 32 32 32 32 33 36 31 34 35 34 33 32 31 31 30 31 27 20 23 22 24 26 25 24 22 22 21 19 20 21 21 20 20 20 20 20 20 21 20 19 19 19 19 19 19 20
31 32 30 29 32 33 32 33 36 36 35 35 32 31 31 31 30 30 28 25 21 20 23 24 26 29 27 24 20 20 19 20 21 21 21 20 20 20 19 19 20 19 19 19 19 19 19 19 19
32 32 32 32 33 33 29 31 35 35 32 30 30 30 31 30 30 29 27 26 21 20 20 21 23 27 25 23 21 19 20 20 21 22 22 21 21 21 19 20 19 19 18 19 19 19 19 19 19
32 33 33 31 32 34 28 32 35 32 29 28 27 29 31 30 28 28 27 26 21 19 21 19 22 24 26 25 20 21 19 20 21 22 22 22 22 21 20 20 19 18 19 19 19 19 19 18 19
31 32 31 30 26 32 32 32 34 33 31 28 28 27 28 28 26 26 26 24 23 20 19 20 23 23 22 23 20 20 20 20 20 22 22 21 21 21 19 18 18 18 19 19 19 19 19 18 18
33 31 32 31 30 31 32 31 34 34 33 29 28 28 26 26 26 26 25 23 23 23 22 20 21 20 20 20 20 20 20 19 20 20 21 21 20 19 18 18 18 18 18 19 19 18 18 18 18
31 32 29 31 30 33 32 33 33 32 31 29 28 27 27 26 27 26 26 23 24 22 21 20 20 20 19 19 19 19 20 20 19 20 19 19 19 19 19 18 18 18 18 17 18 18 17 18 18
32 32 32 33 30 29 31 34 30 29 28 28 28 27 27 26 26 25 24 25 24 23 21 21 20 19 20 20 20 19 19 19 19 19 19 19 19 18 18 19 18 17 18 18 17 17 17 17 17

GFSSGP_925_temp_072.txt.gz
Temp
23 24 26 28 32 36 34 33 35 33 33 33 33 33 32 31 31 29 28 27 27 27 25 23 22 21 21 21 22 22 22 22 22 22 21 21 21 21 21 21 21 21 21 21 21 21 21 21 21
26 26 27 31 35 35 34 35 33 33 33 33 33 32 32 30 30 29 27 26 27 27 25 25 22 22 21 21 22 22 22 21 21 21 21 21 21 21 21 21 21 21 21 21 21 21 21 21 20
26 26 30 35 37 35 34 34 33 33 33 33 33 33 32 30 30 30 27 26 27 27 26 24 22 22 21 22 22 22 22 21 21 21 21 21 21 21 21 21 21 21 21 21 21 21 21 21 20
27 29 32 36 35 35 34 34 34 33 33 34 33 32 31 30 30 29 26 26 26 27 27 23 22 22 21 22 22 22 21 21 22 22 21 21 21 21 21 21 21 21 21 21 21 21 21 21 20
29 32 37 37 36 35 35 34 34 34 33 33 34 31 30 29 28 27 27 27 27 27 27 23 22 22 22 22 22 22 21 21 21 21 21 21 21 21 21 21 22 22 21 21 21 21 21 20 20
32 34 38 36 36 35 35 35 35 35 33 33 33 32 31 28 28 27 27 27 27 27 27 24 22 22 22 22 22 22 22 22 21 21 21 21 22 22 22 21 21 21 21 21 21 21 21 20 20
34 37 37 37 36 36 36 36 36 35 34 33 34 32 31 30 28 28 27 27 27 26 27 24 23 22 22 22 22 21 22 22 21 21 21 21 21 22 22 21 21 21 21 21 21 21 21 20 20
34 37 37 37 37 36 37 36 36 35 34 34 34 33 31 31 28 27 26 26 26 26 26 25 24 23 23 22 21 22 22 22 22 22 22 22 21 22 22 21 21 21 21 21 21 21 20 20 21
34 37 37 37 37 37 37 36 36 36 34 34 34 33 34 29 28 28 27 26 26 26 26 26 25 24 23 23 23 22 22 22 22 22 21 22 23 23 22 23 22 21 21 21 21 20 21 20 21
36 38 37 38 38 38 37 37 36 35 35 34 33 32 31 29 28 29 28 28 27 27 26 26 25 25 24 25 24 23 23 23 24 23 22 23 24 23 23 23 22 20 21 21 21 21 20 21 24
38 38 39 39 39 39 38 36 37 36 35 36 35 33 32 30 30 30 30 30 28 27 27 26 25 25 25 25 24 24 23 22 23 23 22 23 22 22 23 24 23 23 22 23 22 22 22 24 25
37 39 39 39 39 38 38 38 36 36 37 37 36 34 33 32 31 31 30 30 29 28 27 26 25 24 24 24 24 24 23 21 22 22 21 22 21 22 24 24 24 23 22 24 24 25 23 23 23
38 39 40 40 39 38 38 37 37 37 38 37 36 34 33 33 32 31 30 30 29 28 27 27 25 24 23 23 24 23 22 22 22 22 23 22 23 23 23 23 22 22 21 22 24 24 23 23 23
39 39 39 40 39 37 37 38 37 38 38 36 35 34 34 33 33 31 31 30 29 29 28 27 25 24 23 23 23 23 23 23 22 21 22 22 21 21 22 23 22 22 21 21 22 23 23 23 23
38 38 40 40 38 38 37 37 37 38 37 36 35 34 34 33 33 32 31 30 30 29 28 27 25 24 23 23 23 23 24 23 22 21 20 21 20 20 20 22 22 23 22 22 22 22 23 23 23
37 38 38 39 38 37 37 39 39 39 37 36 35 35 34 33 33 32 31 30 30 29 28 27 26 25 24 24 23 24 24 23 22 21 20 19 20 20 20 20 21 21 22 22 21 21 22 24 24
38 37 38 38 38 38 37 38 37 38 37 37 36 35 34 34 33 32 31 31 30 29 28 26 25 25 24 24 24 23 23 23 24 23 21 20 19 20 19 20 21 21 21 21 22 23 24 24 24
37 37 38 37 38 38 38 38 40 38 37 37 37 36 35 34 34 33 32 31 30 29 27 26 25 24 24 24 23 24 23 24 24 23 22 20 19 19 19 20 21 21 20 21 22 23 24 23 24
37 36 36 38 38 37 38 38 39 40 39 38 37 36 35 35 36 34 32 31 30 29 27 26 24 23 22 22 23 24 23 25 24 23 21 20 20 20 19 20 20 20 21 21 22 22 23 23 24
36 36 36 38 38 37 38 38 40 40 40 40 39 37 36 36 36 35 33 31 30 29 27 23 23 24 24 24 21 22 22 24 24 23 22 21 21 20 20 20 20 20 21 22 21 20 21 22 22
36 36 36 37 38 38 38 37 39 40 41 40 39 39 37 36 36 36 33 31 31 28 23 22 25 25 26 24 22 20 20 21 23 23 23 22 21 21 21 21 20 21 21 21 22 21 21 21 21
35 37 37 36 37 36 38 36 38 39 40 40 40 39 38 37 36 36 34 31 30 26 23 21 21 23 25 23 22 22 24 24 24 25 24 23 22 22 22 21 21 21 21 21 21 20 21 21 23
35 37 36 36 36 37 37 36 38 39 38 40 39 38 38 38 36 36 35 32 29 24 21 23 25 25 25 23 23 23 23 23 23 24 24 23 22 22 22 22 21 20 20 20 20 21 21 22 23
36 36 36 36 37 36 36 37 37 39 39 40 39 38 37 37 37 36 34 30 25 24 24 26 28 25 25 22 22 22 23 22 23 24 23 22 22 22 22 22 21 21 21 21 21 21 21 20 20
35 35 34 34 35 35 37 36 37 39 39 38 37 36 37 35 35 34 33 27 25 23 23 22 22 25 23 20 22 22 22 22 22 23 22 22 22 21 21 20 21 21 21 21 21 21 20 20 19
35 36 35 33 35 36 35 35 37 38 38 37 35 35 35 35 34 33 31 27 25 24 23 22 24 22 21 21 21 21 22 23 23 23 21 22 22 21 20 20 20 20 20 20 20 21 21 21 21
36 34 37 36 36 36 37 38 38 39 39 38 36 34 33 33 32 31 31 29 26 25 25 23 23 22 22 23 22 22 22 22 24 22 21 21 21 21 20 19 20 21 20 20 20 21 20 20 20
36 37 35 36 33 33 36 36 36 38 38 39 35 33 31 31 31 31 30 28 25 26 24 23 23 23 23 22 22 22 22 22 22 22 22 21 20 19 19 19 20 21 20 20 20 20 20 20 21
35 35 35 37 36 35 35 36 38 38 37 35 34 32 31 31 32 31 29 28 28 28 26 22 21 22 21 21 23 22 22 22 22 22 22 22 21 20 20 21 21 21 21 20 20 20 20 21 20
37 36 36 35 34 35 35 36 36 35 34 33 33 32 31 31 31 30 29 28 28 26 23 21 21 22 21 22 22 22 22 22 22 22 22 22 21 21 20 20 19 19 20 19 20 20 20 20 20

GFSSGP_925_temp_075.txt.gz
Temp
23 25 25 29 30 38 37 36 38 37 36 37 36 35 34 33 32 29 31 31 30 28 25 23 22 22 22 22 22 21 22 22 22 22 21 21 21 21 22 21 21 21 21 21 21 21 21 21 21
28 30 31 33 36 37 36 38 36 36 36 36 36 36 35 32 33 32 31 30 30 28 27 25 23 22 22 22 22 21 22 21 21 21 21 21 21 21 21 21 21 21 21 21 21 21 21 21 21
26 30 32 37 39 37 36 37 36 36 36 36 36 35 34 32 33 33 30 30 30 29 28 25 23 22 22 22 22 22 22 21 21 21 21 21 22 21 21 21 21 21 21 21 21 21 21 21 21
30 33 35 38 38 38 37 37 37 37 37 37 36 33 34 33 33 32 30 30 30 29 28 24 24 22 22 22 22 21 21 22 21 21 21 21 22 22 21 22 21 21 21 21 21 21 21 21 20
32 36 39 38 38 38 38 37 38 37 36 36 37 34 32 32 31 30 30 30 30 27 26 24 23 22 21 22 22 21 21 21 22 21 21 21 21 22 22 21 21 21 21 21 21 21 21 21 21
35 38 40 38 38 39 39 39 39 37 37 36 36 34 33 32 31 30 30 30 31 30 28 24 22 22 22 22 22 22 21 21 21 21 21 21 22 21 22 22 22 21 21 21 21 21 21 21 21
37 40 39 39 39 38 38 40 39 38 38 36 37 35 33 33 31 30 30 30 30 30 28 25 23 22 21 21 21 21 22 21 21 21 21 22 21 21 21 21 22 21 21 21 21 21 21 21 21
37 40 40 40 39 38 39 40 39 39 36 37 37 35 33 33 31 30 30 30 30 30 28 26 24 24 23 23 21 21 22 22 22 22 21 21 21 22 22 22 22 21 21 21 21 21 21 20 21
39 38 39 40 39 39 40 39 39 39 37 37 37 37 36 32 31 31 29 29 29 29 29 27 25 24 24 23 23 22 22 22 22 22 22 22 22 23 24 23 23 22 21 21 21 21 21 21 21
39 40 40 41 41 40 40 40 39 39 38 37 36 36 34 32 31 31 30 30 29 29 29 29 28 26 25 26 24 23 23 24 24 25 23 23 25 24 24 23 23 22 21 21 21 21 21 21 24
41 40 41 41 41 41 41 39 40 39 38 38 37 35 35 33 32 32 32 31 30 29 29 29 28 27 27 27 26 25 24 25 24 24 24 23 24 24 25 25 23 23 22 23 22 22 22 24 25
39 41 41 42 41 41 40 41 40 39 40 40 39 37 35 34 34 33 33 32 31 30 29 28 28 27 26 27 26 26 25 23 23 23 23 22 23 24 24 26 26 25 23 24 24 25 25 24 24
40 41 42 42 42 41 41 41 40 40 40 39 39 37 36 35 34 33 33 32 32 30 30 29 27 26 25 25 26 26 26 24 22 23 22 23 24 25 23 25 25 23 24 23 23 24 24 24 24
41 40 41 42 42 41 40 41 41 40 41 39 38 37 37 36 35 34 33 33 32 31 30 29 27 25 25 24 25 25 25 25 24 23 23 23 22 23 24 24 24 23 22 22 23 25 25 25 25
40 39 41 42 42 41 41 40 40 41 40 39 38 37 37 36 36 34 33 33 32 31 30 29 27 26 24 24 24 23 24 24 23 23 22 22 22 21 22 23 22 22 22 21 22 23 25 25 24
39 40 39 42 41 41 40 38 40 42 41 39 38 38 37 36 36 35 34 33 32 31 30 29 28 27 25 25 24 23 23 22 23 22 21 22 21 20 21 22 23 22 21 21 21 22 23 24 25
39 38 39 41 41 41 40 39 41 42 41 39 39 38 37 37 36 35 34 33 32 31 30 29 28 27 26 25 24 24 23 23 23 23 24 22 21 19 19 22 23 21 21 21 21 22 22 24 24
38 39 40 40 41 41 40 40 42 42 41 40 40 39 38 37 36 35 34 33 32 31 30 28 27 26 26 25 24 24 23 24 25 26 26 22 21 20 19 20 22 20 21 21 21 22 23 24 25
39 39 39 40 41 40 39 40 41 42 42 42 41 40 38 38 38 36 34 34 33 31 29 28 27 26 25 24 24 23 24 24 26 25 24 22 21 20 19 20 20 20 21 21 21 22 23 24 25
38 38 38 39 40 40 40 39 41 41 42 42 42 41 39 39 38 37 35 34 33 32 30 28 26 25 24 24 24 25 25 24 26 26 24 23 22 20 20 19 20 20 21 21 21 21 22 23 23
38 37 38 38 40 41 39 39 39 41 42 42 42 42 41 39 39 38 36 34 33 32 29 26 24 25 26 22 24 24 24 23 25 25 24 23 23 22 21 20 20 21 21 21 21 21 22 23 22
37 39 39 38 38 37 40 37 39 41 41 42 42 42 41 41 39 39 36 34 33 31 26 23 28 28 24 23 25 25 26 27 28 26 26 25 24 23 22 21 21 20 20 20 21 21 21 21 22
37 39 38 38 38 38 38 38 39 41 40 41 42 41 41 41 40 39 38 34 33 29 24 25 29 25 24 24 24 26 25 27 26 26 26 24 23 24 24 23 22 21 21 21 21 21 21 21 22
39 38 38 38 38 36 38 38 39 40 40 41 42 41 40 40 40 39 38 34 32 28 24 24 23 22 23 23 24 23 24 26 24 25 26 23 22 22 23 22 21 21 21 22 21 21 21 21 22
38 37 35 35 36 36 39 39 39 41 41 41 40 40 40 39 39 38 37 34 29 27 25 25 23 23 23 23 24 24 24 24 24 24 25 23 22 22 22 22 21 21 21 22 22 22 22 21 20
37 37 36 34 36 38 40 37 39 41 41 41 41 40 39 39 38 37 37 31 29 27 26 26 23 24 23 24 24 24 23 23 24 25 24 22 23 21 22 21 21 22 22 21 21 21 22 22 22
37 36 38 37 38 37 39 39 40 41 40 41 41 38 37 36 36 36 34 31 29 28 27 26 24 24 24 25 24 23 23 24 25 23 23 22 21 21 21 21 21 22 21 21 21 22 22 22 21
38 39 36 37 34 34 38 38 39 39 39 39 38 36 35 35 34 34 33 31 30 28 28 27 25 24 24 25 24 23 23 24 24 23 23 22 21 20 20 20 21 22 22 21 21 21 22 22 22
37 37 37 38 38 36 36 37 39 39 38 38 36 35 34 34 34 34 34 31 30 29 28 27 25 24 24 24 24 23 24 24 24 24 23 22 21 20 21 21 22 23 22 22 21 21 22 22 22
39 37 37 36 35 37 37 37 39 38 38 38 36 35 34 34 34 33 33 31 31 30 29 27 24 24 24 23 24 24 24 24 24 24 22 22 22 21 22 22 22 22 22 21 21 22 22 21 21